Вернуться в каталог

OPS 9343

IDSCS 21

LostВоенныеMEO
NORAD 3286·PAYLOAD·🇺🇸 United States

Запущен Jun 13, 1968 с Cape Canaveral Space Force Station

Loading…

Ближайшие Пролёты (ближайшие 24 часа)

TLE

УстаревшееSource: Space-Track

Эпоха: Jul 25, 2026, 03:46 UTC

1  3286U 68050C   26206.15746587 -.00000115  00000-0  00000+0 0  9994
2  3286   7.2953  51.5424 0019267 150.6601  39.9433  1.07758681 47861

Отслеживайте OPS 9343 в реальном времени с AllMySat

Download on the App Store